Location: Newark
(50.4348°N, 30.5552°E)
Time: 00:57:09
(UTC+00:00)

Tiros 1 despin weight - Pass Details

Date: 25 January 2020
Orbit: 594 x 642 km, 48.2° (Epoch: 20 February)

Event Time Altitude Azimuth Distance (km) Brightness Sun altitude
Rises 11:23:16 0° 256° (WSW) 2,878 ? 18.7°
Reaches altitude 10° 11:25:34 10° 253° (WSW) 1,982 ? 18.6°
Maximum altitude 11:30:04 64° 173° (S) 693 ? 18.3°
Drops below altitude 10° 11:34:40 10° 92° (E) 2,013 ? 18.1°
Sets 11:37:01 0° 90° (E) 2,928 ? 17.9°
